This is the latest recevied weather packets stored in our database for station/object JF2ZGN-13. If no packets are shown the sender has not sent any weather packets the latest 1 day(s).
| Time | Temp. | Humidity | Pressure | Rain* | Wind** | Luminosity | Snow |
|---|---|---|---|---|---|---|---|
| 1778093910 | 13.33° C | 52% | 909 hPa | 0.25 mm | - | - | - |
| 1778092109 | 13.33° C | 53% | 909.1 hPa | 0.25 mm | - | - | - |
| 1778090908 | 13.89° C | 53% | 909.2 hPa | 0.25 mm | - | - | - |
| 1778087305 | 13.89° C | 52% | 909.4 hPa | 0.25 mm | - | - | - |
| 1778086705 | 13.89° C | 52% | 909.4 hPa | 0.25 mm | - | - | - |
| 1778085504 | 13.89° C | 52% | 909.3 hPa | 0 mm | - | - | - |
| 1778084903 | 13.89° C | 53% | 909.5 hPa | 0 mm | - | - | - |
| 1778081901 | 13.89° C | 51% | 910 hPa | 0 mm | - | - | - |
| 1778080700 | 13.89° C | 51% | 910.1 hPa | 0 mm | - | - | - |
| 1778080100 | 13.33° C | 50% | 910.2 hPa | 0 mm | - | - | - |
| 1778077698 | 13.33° C | 49% | 910.7 hPa | 1.52 mm | - | - | - |
| 1778077098 | 13.33° C | 49% | 910.7 hPa | 1.52 mm | - | - | - |
| 1778074095 | 12.78° C | 49% | 910.8 hPa | 1.27 mm | - | - | - |
| 1778073495 | 12.78° C | 49% | 910.8 hPa | 1.27 mm | - | - | - |
| 1778072894 | 12.78° C | 48% | 911 hPa | 1.27 mm | - | - | - |
| 1778072294 | 12.78° C | 43% | 910.8 hPa | 1.02 mm | - | - | - |
| 1778071093 | 12.22° C | 43% | 911.1 hPa | 1.02 mm | - | - | - |
| 1778069892 | 12.22° C | 49% | 910.9 hPa | 1.02 mm | - | - | - |
| 1778068692 | 12.22° C | 47% | 910.9 hPa | 0.76 mm | - | - | - |
| 1778068091 | 12.22° C | 47% | 910.9 hPa | 0.76 mm | - | - | - |
| 1778067491 | 12.22° C | 47% | 911 hPa | 0.76 mm | - | - | - |
| 1778066290 | 12.22° C | 46% | 910.7 hPa | 0.76 mm | - | - | - |
| 1778065089 | 12.22° C | 46% | 910.9 hPa | 0.76 mm | - | - | - |
| 1778064488 | 12.22° C | 46% | 910.9 hPa | 0.76 mm | - | - | - |
| 1778063287 | 12.22° C | 46% | 910.6 hPa | 0.76 mm | - | - | - |
* Rain since midnight (hover to see other rain measurements)
** Current wind speed in m/s (hover to see current wind gust speed)